Weather History for Middletown, OH

Change the Weather History Date:

Thursday, August 9, 2012

  Actual Average (KDAY) Record (KDAY)
Temperature  
Mean Temperature 77 °F 73 °F  
Max Temperature 87 °F 83 °F 99 °F (1894)
Min Temperature 67 °F 64 °F 50 °F (1964)
Degree Days  
Heating Degree Days 0 0  
Month to date heating degree days 0  
Since 1 June heating degree days 22  
Since 1 July heating degree days 0  
Cooling Degree Days 12 8  
Month to date cooling degree days 78  
Year to date cooling degree days 617  
Since 1 June cooling degree days 547  
Growing Degree Days 27 (Base 50)    
Moisture  
Dew Point 68 °F    
Average Humidity 82    
Maximum Humidity 100    
Minimum Humidity 56    
Precipitation  
Precipitation 0.00 in 0.09 in 2.98 in (1969)
Month to date precipitation 0.86  
Year to date precipitation 26.18  
Snow  
Snow 0.00 in 0.00 in 0.00 in ()
Month to date snowfall 0.0  
Since 1 June snowfall 0.0  
Since 1 July snowfall 0.0  
Snow Depth -    
Sea Level Pressure  
Sea Level Pressure 29.89 in    
Wind  
Wind Speed 8 mph (SE)    
Max Wind Speed 24 mph    
Max Gust Speed 33 mph    
Visibility 9 miles    
Events Rain    
T = Trace of Precipitation, MM = Missing Value Source: NWS Daily Summary

Daily Weather History Graph

Daily Weather History Graph

Search for Another Location

Airport:

Trip Planner

Search our weather history database for the weather conditions in past years. The results will help you decide how hot, cold, wet, or windy it might be!

Date:

Astronomy

Aug. 09, 2012 Rise Set
Actual Time 6:44 AM EDT 8:40 PM EDT
Civil Twilight 6:15 AM EDT 9:09 PM EDT
Nautical Twilight 5:39 AM EDT 9:45 PM EDT
Astronomical Twilight 5:01 AM EDT 10:23 PM EDT
Moon No Moon Rise 2:23 PM EDT (8/9)
Length of Visible Light 14h 54m
Length of Day
13h 55m
Waning Gibbous, 51% of the Moon is Illuminated
Aug 9
Waning Gibbous
Aug 9
Last Quarter
Aug 17
New
Aug 24
First Quarter
Aug 31
Full

Hourly Weather History & Observations

Time (EDT) Temp. Heat Index Dew Point Humidity Pressure Visibility Wind Dir Wind Speed Gust Speed Precip Events Conditions
12:15 AM 72.9 °F - 68.7 °F 87% 30.01 in 5.0 mi West 24.2 mph 33.4 mph N/A Rain Heavy Rain
12:35 AM 67.8 °F - 67.8 °F 100% 30.05 in 2.0 mi South 13.8 mph 24.2 mph N/A Rain Heavy Rain
12:55 AM 67.6 °F - 67.6 °F 100% 29.99 in 5.0 mi SSE 8.1 mph - N/A Rain Heavy Rain
1:15 AM 67.6 °F - 67.6 °F 100% 29.96 in 10.0 mi NE 12.7 mph 20.7 mph N/A Rain Light Rain
1:35 AM 67.6 °F - 67.6 °F 100% 29.95 in 10.0 mi ENE 10.4 mph - N/A   Scattered Clouds
1:55 AM 67.6 °F - 67.1 °F 98% 29.94 in 10.0 mi NE 4.6 mph - N/A   Scattered Clouds
2:15 AM 67.6 °F - 67.5 °F 99% 29.93 in 10.0 mi Calm Calm - N/A   Clear
2:35 AM 67.6 °F - 67.6 °F 100% 29.94 in 10.0 mi Calm Calm - N/A   Mostly Cloudy
2:55 AM 68.9 °F - 68.0 °F 97% 29.97 in 10.0 mi SSW 4.6 mph 9.2 mph N/A Rain Light Rain
3:15 AM 69.6 °F - 69.3 °F 99% 29.95 in 5.0 mi SSE 3.5 mph - N/A Rain Light Rain
3:35 AM 68.9 °F - 68.7 °F 99% 29.94 in 10.0 mi Calm Calm - N/A   Mostly Cloudy
3:55 AM 68.9 °F - 68.7 °F 99% 29.93 in 10.0 mi Calm Calm - N/A   Scattered Clouds
4:15 AM 68.2 °F - 68.0 °F 99% 29.93 in 10.0 mi Calm Calm - N/A   Clear
4:35 AM 68.2 °F - 68.0 °F 99% 29.93 in 10.0 mi Calm Calm - N/A   Clear
4:55 AM 68.9 °F - 68.5 °F 99% 29.93 in 10.0 mi Calm Calm - N/A   Clear
5:15 AM 68.9 °F - 68.9 °F 100% 29.92 in 7.0 mi Calm Calm - N/A   Clear
5:35 AM 67.6 °F - 67.6 °F 100% 29.92 in 5.0 mi Calm Calm - N/A   Clear
5:55 AM 67.6 °F - 67.6 °F 100% 29.93 in 5.0 mi NW 4.6 mph - N/A   Scattered Clouds
6:15 AM 67.6 °F - 67.6 °F 100% 29.95 in 7.0 mi NNW 4.6 mph - N/A   Mostly Cloudy
6:35 AM 67.6 °F - 67.6 °F 100% 29.97 in 10.0 mi Calm Calm - N/A   Mostly Cloudy
6:55 AM 68.9 °F - 68.9 °F 100% 29.98 in 7.0 mi Calm Calm - N/A   Overcast
7:15 AM 68.9 °F - 66.7 °F 93% 30.00 in 10.0 mi WNW 15.0 mph 24.2 mph N/A   Overcast
7:35 AM 67.6 °F - 66.0 °F 95% 29.99 in 10.0 mi NNW 13.8 mph 19.6 mph N/A Rain Rain
7:55 AM 67.6 °F - 66.7 °F 97% 29.99 in 10.0 mi NNW 9.2 mph 17.3 mph N/A   Mostly Cloudy
8:15 AM 67.6 °F - 66.0 °F 95% 30.00 in 10.0 mi NNW 9.2 mph - N/A   Mostly Cloudy
8:35 AM 67.6 °F - 66.4 °F 96% 29.98 in 10.0 mi ENE 4.6 mph - N/A   Overcast
8:55 AM 67.8 °F - 66.4 °F 95% 29.97 in 10.0 mi NE 3.5 mph - N/A   Overcast
9:15 AM 70.2 °F - 68.0 °F 93% 29.98 in 10.0 mi Calm Calm - N/A   Scattered Clouds
9:35 AM 72.7 °F - 70.0 °F 91% 29.95 in 10.0 mi ENE 5.8 mph - N/A   Scattered Clouds
9:55 AM 72.7 °F - 68.5 °F 87% 29.94 in 10.0 mi East 3.5 mph - N/A   Clear
10:15 AM 75.2 °F - 68.5 °F 80% 29.94 in 10.0 mi Calm Calm - N/A   Clear
10:35 AM 77.9 °F - 68.2 °F 72% 29.92 in 10.0 mi ESE 3.5 mph - N/A   Clear
10:55 AM 78.3 °F - 67.1 °F 68% 29.91 in 10.0 mi ESE 5.8 mph - N/A   Clear
11:15 AM 80.8 °F 82.8 °F 65.7 °F 60% 29.91 in 10.0 mi SSE 8.1 mph - N/A   Clear
11:35 AM 79.5 °F - 68.4 °F 69% 29.90 in 10.0 mi South 10.4 mph - N/A   Clear
11:55 AM 80.4 °F 82.7 °F 66.7 °F 63% 29.90 in 10.0 mi SSE 6.9 mph - N/A   Clear
12:15 PM 81.5 °F 84.2 °F 67.8 °F 63% 29.89 in 10.0 mi South 9.2 mph - N/A   Clear
12:35 PM 81.9 °F 84.2 °F 66.9 °F 60% 29.89 in 10.0 mi SSW 8.1 mph - N/A   Clear
12:55 PM 82.6 °F 85.3 °F 67.6 °F 60% 29.89 in 10.0 mi SSE 8.1 mph - N/A   Clear
1:15 PM 84.0 °F 87.3 °F 68.4 °F 59% 29.88 in 10.0 mi SE 3.5 mph - N/A   Clear
1:35 PM 81.0 °F 82.9 °F 65.3 °F 59% 29.89 in 10.0 mi Calm Calm - N/A   Mostly Cloudy
1:55 PM 81.9 °F 84.1 °F 66.0 °F 59% 29.89 in 10.0 mi North 3.5 mph - N/A   Overcast
2:15 PM 85.3 °F 88.5 °F 68.2 °F 56% 29.87 in 10.0 mi East 3.5 mph - N/A   Mostly Cloudy
2:35 PM 85.3 °F 90.8 °F 71.6 °F 63% 29.86 in 10.0 mi North 5.8 mph - N/A   Clear
2:55 PM 81.9 °F 85.6 °F 70.0 °F 67% 29.86 in 10.0 mi North 8.1 mph - N/A   Clear
3:15 PM 81.9 °F 85.2 °F 68.9 °F 65% 29.85 in 10.0 mi North 5.8 mph - N/A   Clear
3:35 PM 83.7 °F 87.7 °F 70.0 °F 63% 29.84 in 10.0 mi NE 6.9 mph - N/A   Scattered Clouds
3:55 PM 85.3 °F 89.8 °F 70.2 °F 60% 29.82 in 10.0 mi NNE 8.1 mph - N/A   Clear
4:15 PM 87.1 °F 93.6 °F 72.0 °F 61% 29.80 in 10.0 mi NE 6.9 mph - N/A   Clear
4:35 PM 82.8 °F 85.8 °F 68.0 °F 61% 29.82 in 10.0 mi East 3.5 mph - N/A   Clear
4:55 PM 81.9 °F 84.6 °F 67.6 °F 62% 29.81 in 10.0 mi ENE 6.9 mph - N/A   Clear
5:15 PM 82.6 °F 85.1 °F 67.1 °F 59% 29.82 in 10.0 mi NE 3.5 mph - N/A   Clear
5:35 PM 82.6 °F 85.7 °F 68.2 °F 62% 29.82 in 10.0 mi East 4.6 mph - N/A   Clear
5:55 PM 82.2 °F 85.5 °F 68.9 °F 64% 29.80 in 10.0 mi ESE 8.1 mph - N/A   Clear
6:15 PM 78.1 °F - 63.1 °F 60% 29.82 in 10.0 mi SSE 15.0 mph 21.9 mph N/A   Scattered Clouds
6:35 PM 77.9 °F - 63.1 °F 60% 29.82 in 10.0 mi South 11.5 mph - N/A   Scattered Clouds
6:55 PM 75.2 °F - 63.0 °F 66% 29.83 in 10.0 mi South 9.2 mph - N/A   Clear
7:15 PM 75.2 °F - 64.0 °F 68% 29.83 in 10.0 mi South 9.2 mph - N/A   Clear
7:35 PM 75.2 °F - 66.2 °F 73% 29.82 in 10.0 mi SSW 12.7 mph - N/A   Clear
7:55 PM 75.2 °F - 66.4 °F 74% 29.83 in 10.0 mi South 10.4 mph - N/A   Clear
8:15 PM 72.7 °F - 64.8 °F 76% 29.83 in 10.0 mi South 15.0 mph 19.6 mph N/A   Clear
8:35 PM 72.7 °F - 68.9 °F 88% 29.84 in 10.0 mi NW 3.5 mph - N/A   Clear
8:55 PM 72.7 °F - 70.0 °F 91% 29.84 in 10.0 mi Calm Calm - N/A   Scattered Clouds
9:15 PM 72.7 °F - 68.9 °F 88% 29.83 in 10.0 mi Calm Calm - N/A Rain Light Rain
9:35 PM 72.7 °F - 68.4 °F 86% 29.83 in 10.0 mi South 4.6 mph - N/A   Mostly Cloudy
9:55 PM 72.7 °F - 69.4 °F 90% 29.81 in 10.0 mi South 6.9 mph - N/A Rain Light Rain
10:15 PM 72.7 °F - 69.8 °F 91% 29.80 in 10.0 mi SSW 8.1 mph - N/A   Scattered Clouds
10:35 PM 72.7 °F - 70.0 °F 91% 29.80 in 10.0 mi SW 6.9 mph - N/A Rain Light Rain
10:55 PM 72.7 °F - 70.0 °F 91% 29.79 in 10.0 mi SSW 5.8 mph - N/A   Scattered Clouds
11:15 PM 72.7 °F - 69.6 °F 90% 29.77 in 10.0 mi SSW 4.6 mph - N/A   Clear
11:35 PM 70.2 °F - 68.0 °F 93% 29.77 in 10.0 mi SSW 5.8 mph - N/A   Clear
11:55 PM 70.2 °F - 68.7 °F 95% 29.77 in 10.0 mi SW 6.9 mph - N/A   Clear